Location: Appetshofen
(48.8191°N, 10.6079°E)
Time: 01:10:55
(UTC+00:00)

Daily predictions for brighter satellites

Satellite Brightness Start Highest point End
(mag) Time Altitude Azimuth Time Altitude Azimuth Time Altitude Azimuth
STARLINK-1105 3.6 00:00:01 10° WNW 00:03:05 54° NNE 00:06:07 10° E
STARLINK-1209 3.2 00:00:15 10° WNW 00:03:24 67° NNE 00:06:33 10° ESE
STARLINK-1247 3.6 00:00:55 10° WNW 00:04:00 54° NNE 00:07:05 10° E
STARLINK-1227 3.5 00:01:24 10° WNW 00:04:27 54° NNE 00:07:30 10° E
ATLAS CENTAUR R/B 2.9 00:02:45 10° NW 00:04:50 32° NNE 00:08:30 10° E
STARLINK-1226 3.5 00:02:14 10° WNW 00:05:20 55° NNE 00:08:23 10° E
STARLINK-1215 3.5 00:03:10 10° WNW 00:06:16 56° NNE 00:09:21 10° E
Nadezhda 2 Rocket 4.4 00:04:33 32° S 00:07:33 82° E 00:13:42 10° N
STARLINK-1217 3.5 00:04:57 10° WNW 00:08:02 57° NNE 00:11:06 10° E
STARLINK-1229 3.5 00:05:52 10° WNW 00:08:57 57° NNE 00:12:03 10° E
STARLINK-1270 3.4 00:06:44 10° WNW 00:09:50 58° NNE 00:12:55 10° E
GEOS 3 Rocket 3.6 00:07:39 28° SSE 00:10:24 67° SW 00:15:41 10° NW
Cosmos 1726 3.7 00:07:42 10° NW 00:10:39 23° W 00:10:54 22° W
STARLINK-1189 3.4 00:08:34 10° WNW 00:11:40 59° NNE 00:14:45 10° E
Cosmos 2058 Rocket 3.1 00:07:36 10° N 00:12:02 79° E 00:13:46 37° SSE
STARLINK-1188 3.4 00:09:27 10° WNW 00:12:33 60° NNE 00:15:39 10° E
Meteor 1-29 2.8 00:09:39 10° NNE 00:13:04 86° WNW 00:13:32 65° SSW
STARLINK-1235 3.1 00:10:09 10° WNW 00:13:15 70° NNE 00:16:19 10° ESE
STARLINK-1187 3.2 00:10:34 10° WNW 00:13:39 65° NNE 00:16:44 10° ESE
STARLINK-1154 4.5 00:10:18 10° WNW 00:14:22 52° N 00:18:25 10° E
COSMOS 2455 2.8 00:11:39 33° SSW 00:14:29 73° ESE 00:20:30 10° NE
Cosmos 2228 3.3 00:10:22 10° NNW 00:14:31 52° W 00:15:32 41° SW
STARLINK-1191 3.3 00:11:56 10° WNW 00:15:01 61° NNE 00:18:06 10° ESE
SJ 16-02 3.7 00:12:12 10° N 00:15:41 22° NE 00:19:08 10° ESE
STARLINK-1221 3.3 00:12:48 10° WNW 00:15:53 62° NNE 00:18:58 10° ESE
STARLINK-1222 3.3 00:13:41 10° WNW 00:16:47 63° NNE 00:19:52 10° ESE
STARLINK-1214 3.2 00:14:37 10° WNW 00:17:42 63° NNE 00:20:47 10° ESE
Cosmos 1953 4.1 00:16:03 10° NW 00:18:51 18° W 00:19:26 18° W
STARLINK-1197 4.4 00:15:17 10° WNW 00:19:21 53° NNE 00:23:25 10° E
SL-14 R/B 3.4 00:18:39 43° SSE 00:19:44 64° E 00:23:34 10° NNE
Cosmos 1340 Rocket 4.3 00:17:22 10° NW 00:20:36 23° W 00:21:08 23° WSW
IRAS Rocket 4.2 00:17:53 29° S 00:20:50 79° WSW 00:26:27 10° NNW
Okean 1-7 Rocket 3.5 00:22:03 39° S 00:23:40 85° E 00:28:13 10° N
Cosmos 1300 2.7 00:19:58 10° N 00:23:48 76° ENE 00:25:04 40° SSE
Cosmos 1174 3.2 00:23:33 64° S 00:23:57 77° SE 00:27:37 10° NE
STARLINK-1198 4.4 00:20:14 10° WNW 00:24:19 54° NNE 00:28:24 10° E
Cosmos 921 Rocket 3.7 00:23:34 31° SSE 00:25:03 44° ESE 00:29:10 10° NNE
BREEZE M DEB (TANK) 2.3 00:26:49 51° ESE 00:26:49 51° ESE 00:29:23 10° ESE
COSMOS 2487 3.4 00:24:21 10° NW 00:27:18 31° W 00:27:18 31° W
STARLINK-1199 4.3 00:25:16 10° WNW 00:29:22 56° NNE 00:33:27 10° E
Cosmos 1626 Rocket 4.3 00:29:36 26° SSE 00:31:36 44° E 00:35:45 10° NNE
Cosmos 2219 3.9 00:27:01 10° NNW 00:32:36 53° NE 00:38:07 10° SE
STARLINK-1210 4.2 00:30:14 10° WNW 00:34:20 58° NNE 00:38:26 10° E
Cosmos 1626 2.0 00:34:31 47° SSW 00:35:30 80° W 00:39:15 10° N
STARLINK-60 2.9 00:36:27 59° SSE 00:36:35 60° SSE 00:39:45 10° ENE
Cosmos 1656 Rocket 4.4 00:33:51 20° WSW 00:37:25 46° NW 00:42:48 10° NNE
STARLINK-1219 4.2 00:35:13 10° WNW 00:39:20 60° NNE 00:43:26 10° E
Nadezhda 1 Rocket 4.0 00:35:08 10° N 00:41:19 81° E 00:45:52 20° SSE
FALCON 9 R/B 3.8 00:38:25 25° SSW 00:41:50 35° SSE 00:59:23 10° ESE
STARLINK-1211 4.1 00:40:11 10° WNW 00:44:19 62° NNE 00:48:25 10° E
MOZ.5/SAFIR/RUBIN 5/SL-8 3.7 00:44:16 26° SSE 00:46:51 85° WSW 00:51:31 10° NNW
UNK 3.9 00:44:00 20° SSE 00:47:08 74° ENE 00:51:45 10° N
Cosmos 220 Rocket 4.4 00:46:16 30° S 00:48:13 56° ESE 00:52:34 10° NNE
Cosmos 2297 Rocket 2.8 00:42:42 10° NNW 00:48:17 57° ENE 00:53:50 10° SE
STARLINK-1245 4.0 00:45:11 10° WNW 00:49:19 65° NNE 00:53:26 10° E
Cosmos 1812 Rocket 4.0 00:46:48 10° N 00:51:15 61° ENE 00:54:30 18° SSE
SL-4 R/B 2.3 00:49:12 28° SW 00:51:40 69° SSE 00:56:22 10° ENE
CZ-4B R/B 4.3 00:46:49 10° NNE 00:51:45 45° E 00:55:16 19° SSE
Cosmos 1437 2.4 00:52:48 55° SSW 00:53:22 82° WNW 00:56:22 10° N
STARLINK-1233 4.0 00:50:09 10° WNW 00:54:18 67° NNE 00:58:26 10° ESE
SL-19 R/B 4.4 00:51:29 10° N 00:56:47 62° WNW 01:00:03 25° SW
ATLAS CENTAUR R/B 1.7 00:56:56 27° WSW 00:59:13 64° NW 01:03:18 10° NE
STARLINK-1204 3.9 00:55:09 10° WNW 00:59:18 70° NNE 01:03:26 10° ESE
Timation 2 Rocket 4.1 00:53:55 10° NW 01:00:08 56° WSW 01:04:30 19° S
SL-16 R/B 2.5 00:56:01 17° SSE 01:00:56 80° WSW 01:07:09 10° NNW
NOSS 3-4 (A) 4.0 00:57:31 16° WSW 01:02:19 55° NW 01:08:42 10° NE
NOSS 3-4 (C) 4.0 00:57:37 16° WSW 01:02:25 56° NW 01:08:49 10° NE
BREEZE-M R/B 3.3 01:01:07 30° SSW 01:02:34 39° SSE 01:05:27 10° E
FALCON 9 DEB 3.9 01:02:08 32° SSE 01:02:43 35° SE 01:05:55 10° ENE
STARLINK-1238 3.8 01:00:06 10° WNW 01:04:16 73° NNE 01:08:24 10° ESE
Cosmos 1602 Rocket 3.6 01:01:57 26° S 01:04:19 75° E 01:08:39 10° NNE
STARLINK-29 3.1 01:04:34 42° SSW 01:05:14 53° SSE 01:08:22 10° ENE
Cosmos 1455 3.0 01:02:34 10° N 01:06:13 47° ENE 01:09:23 13° SSE
ATLAS 3B R/B 3.1 01:01:05 10° NW 01:07:26 43° WSW 01:12:43 16° S
BREEZE-M DEB (TANK) 3.8 01:09:30 15° SE 01:09:30 15° SE 01:10:28 10° ESE
STARLINK-1201 3.7 01:05:06 10° WNW 01:09:16 77° NNE 01:13:25 10° ESE
IRS-1D 4.4 01:05:49 10° NNE 01:10:57 45° E 01:15:17 14° SSE
CENTAUR R/B 4.1 01:04:25 10° WNW 01:10:58 27° WSW 01:14:47 20° SW
GP-B 3.8 01:08:05 10° N 01:12:27 51° E 01:16:11 14° SSE
Meteor 2-1 Rocket 4.1 01:08:02 10° NNW 01:13:34 80° W 01:18:03 16° S
BREEZE-M DEB (TANK) 0.9 01:12:38 34° WSW 01:13:34 84° S 01:15:53 10° ENE
STARLINK-1206 3.7 01:10:05 10° WNW 01:14:15 81° NNE 01:18:24 10° ESE
Cosmos-2242 3.9 01:11:40 10° N 01:15:49 47° ENE 01:19:56 10° SSE
Cosmos 1745 Rocket 4.0 01:12:45 22° SSW 01:16:50 68° W 01:22:59 10° N
STARLINK-1205 3.6 01:15:04 10° WNW 01:19:13 85° NNE 01:23:23 10° ESE
RESURS DK-1 2.7 01:19:17 24° SW 01:21:35 56° WNW 01:25:42 10° NNE
Cosmos 2181 Rocket 4.4 01:16:02 10° N 01:22:26 68° ENE 01:28:51 10° SSE
SL-08 R/B 4.4 01:18:00 10° SE 01:22:26 44° ENE 01:26:51 10° N
Cosmos 1356 Rocket 4.0 01:19:55 10° NNW 01:23:49 41° W 01:25:49 24° SSW
Cosmos 2227 Rocket 2.2 01:18:13 10° NNW 01:23:57 86° ENE 01:29:38 10° SSE
STARLINK-1218 3.6 01:20:02 10° WNW 01:24:12 89° NNE 01:28:21 10° ESE
CZ-2D R/B 2.1 01:21:18 10° NNE 01:26:36 75° WNW 01:30:15 20° SSW
Cosmos 2369 Rocket 4.5 01:23:56 10° WNW 01:27:24 16° NW 01:30:52 10° N
Cosmos 1763 Rocket 4.2 01:23:45 14° S 01:27:47 45° ESE 01:32:38 10° NE
Cosmos 1697 Rocket 3.9 01:23:12 11° SSE 01:28:03 34° ESE 01:33:07 10° NE
STARLINK-1254 3.5 01:25:02 10° WNW 01:29:11 87° SSW 01:33:20 10° ESE
ADEOS II 2.8 01:24:09 10° NNE 01:29:17 50° E 01:34:07 11° S
Cosmos 1703 4.0 01:26:48 14° SSE 01:29:56 49° E 01:33:46 10° NNE
ATLAS 2AS CENTAUR R/B 3.8 01:23:49 10° WSW 01:31:32 47° NW 01:39:05 10° NE
CZ-4C R/B 4.4 01:30:46 22° SW 01:32:38 32° W 01:36:32 10° NNW
STARLINK-1231 3.5 01:30:02 10° WNW 01:34:11 83° SSW 01:38:20 10° ESE
STARLINK-1228 3.9 01:32:47 10° W 01:35:43 28° SW 01:38:38 10° SSE
STARLINK-1246 4.5 01:32:15 10° WNW 01:36:19 52° NNE 01:40:23 10° E
Resurs 1-4 Rocket 2.3 01:31:06 10° N 01:36:19 61° WNW 01:40:11 18° SW
STARLINK-1234 3.8 01:34:13 10° W 01:36:56 27° SW 01:37:02 27° SW
STARLINK-1212 3.4 01:35:29 10° WNW 01:38:21 34° SW 01:41:12 10° SSE
STARLINK-1105 3.4 01:35:58 10° WNW 01:38:48 33° SW 01:41:38 10° SSE
STARLINK-1232 3.5 01:35:01 10° WNW 01:39:09 78° SSW 01:43:18 10° ESE
STARLINK-1209 4.1 01:36:32 10° W 01:38:42 24° SW 01:38:42 24° SW
STARLINK-1247 3.5 01:36:52 10° WNW 01:39:44 33° SW 01:42:35 10° SSE
STARLINK-1227 3.5 01:37:20 10° WNW 01:40:10 33° SW 01:42:59 10° SSE
USA 81 4.1 01:36:19 18° SSW 01:40:15 66° W 01:45:32 10° N
STARLINK-1226 3.5 01:38:12 10° WNW 01:41:02 32° SW 01:43:52 10° SSE
STARLINK-1224 4.4 01:37:14 10° WNW 01:41:19 54° NNE 01:45:22 10° E
ARIANE 5 R/B 3.6 01:36:35 10° NNE 01:41:21 40° E 01:46:03 10° SSE
STARLINK-52 2.9 01:39:41 22° WSW 01:41:39 87° SSE 01:44:52 10° ENE
STARLINK-1215 3.5 01:39:09 10° WNW 01:41:59 32° SW 01:44:48 10° SSE
Cosmos 1758 Rocket 3.5 01:39:23 17° S 01:42:42 89° E 01:47:06 10° N
STARLINK-1217 3.6 01:40:55 10° WNW 01:43:44 31° SW 01:46:32 10° SSE
NPP 3.8 01:38:25 10° N 01:43:45 63° WNW 01:47:57 17° SSW
STARLINK-1208 3.5 01:39:57 10° WNW 01:44:07 73° SSW 01:48:14 10° SE
STARLINK-1229 3.6 01:41:51 10° W 01:44:39 30° SW 01:47:27 10° SSE
H-2A R/B 3.6 01:41:11 10° SE 01:45:10 38° ENE 01:49:17 10° N
STARLINK-1270 3.6 01:42:43 10° W 01:45:31 30° SW 01:48:18 10° SSE
STARLINK-1225 4.4 01:42:14 10° WNW 01:46:19 55° NNE 01:50:24 10° E
STARLINK-1189 3.7 01:44:34 10° W 01:47:20 29° SW 01:50:06 10° SSE
STARLINK-1188 3.7 01:45:28 10° W 01:48:13 29° SW 01:50:59 10° SSE
STARLINK-1235 4.0 01:46:17 10° W 01:48:49 23° SW 01:51:20 10° SSE
Cosmos 1898 Rocket 3.5 01:43:44 10° NNW 01:49:05 72° WSW 01:54:22 10° SSE
STARLINK-1271 3.5 01:44:58 10° WNW 01:49:06 69° SSW 01:53:13 10° SE
STARLINK-1187 3.9 01:46:39 10° W 01:49:16 25° SW 01:51:54 10° SSE
STARLINK-1191 3.7 01:47:58 10° W 01:50:40 27° SW 01:53:21 10° SSE
Lacrosse 4 Rocket 2.5 01:46:42 10° NNW 01:50:59 51° NE 01:55:08 10° SE
Starlink 7 placeholder 3.6 01:49:43 12° WNW 01:51:14 28° NNW 01:53:02 10° NE
STARLINK-1230 4.3 01:47:12 10° WNW 01:51:18 57° NNE 01:55:24 10° E
Meteor 1-21 Rocket 4.3 01:46:49 16° SSW 01:51:19 67° WNW 01:57:00 10° N
STARLINK-1221 3.8 01:48:50 10° W 01:51:32 27° SW 01:54:13 10° SSE
STARLINK-1222 3.8 01:49:45 10° W 01:52:25 26° SW 01:55:05 10° SSE
Cosmos 1656 3.7 01:48:20 16° SSW 01:53:00 87° ESE 01:58:41 10° NNE
STARLINK-1214 3.8 01:50:40 10° W 01:53:20 26° SW 01:55:58 10° SSE
STARLINK-1154 3.5 01:49:58 10° WNW 01:54:04 65° SSW 01:58:10 10° SE
SJ 16-02 1.6 01:50:15 10° NNW 01:54:33 51° WSW 01:58:50 10° S
Cosmos 2285 Rocket 4.1 01:48:08 10° NNW 01:54:35 87° ENE 02:00:56 10° SSE
IDEFIX/ARIANE 42P 4.3 01:50:03 10° NNE 01:54:38 29° E 01:59:12 10° SSE
CZ-4C R/B 2.9 01:50:43 13° S 01:54:59 43° ESE 02:00:32 10° NE
Cosmos 2084 3.8 01:52:18 16° SW 01:55:50 65° NW 02:00:18 10° NE
STARLINK-1243 4.3 01:52:11 10° WNW 01:56:18 59° NNE 02:00:24 10° E
Cosmos 468 Rocket 4.0 01:52:22 15° SSW 01:56:39 90° WNW 02:01:49 10° NNE
Cosmos 1953 Rocket 3.7 01:54:38 10° S 01:59:01 76° E 02:03:29 10° NNE
STARLINK-1197 3.6 01:54:57 10° WNW 01:59:02 60° SSW 02:03:07 10° SE
Cosmos 1937 Rocket 3.5 01:54:06 10° NNW 01:59:21 80° WSW 02:04:37 10° SSE
COSMOS 2455 4.2 01:55:42 10° W 02:00:58 31° NW 02:06:16 10° NNE
Meteor 2-10 Rocket 4.0 01:56:12 10° NNW 02:01:17 45° W 02:06:01 11° SSW
STARLINK-1236 4.2 01:57:11 10° WNW 02:01:18 61° NNE 02:05:24 10° E
Cosmos 2369 4.2 01:55:55 10° S 02:01:19 57° ESE 02:06:51 10° NE
STARLINK-1198 3.6 01:59:54 10° WNW 02:03:58 56° SSW 02:08:02 10° SE
Cosmos 1709 Rocket 4.3 02:01:48 13° SSW 02:07:03 52° WNW 02:13:03 10° N
STARLINK-1199 3.7 02:04:56 10° WNW 02:08:58 52° SW 02:13:00 10° SE
Iridium 2 4.4 02:07:00 10° N 02:10:42 53° E 02:14:22 10° SSE
STARLINK-1269 4.1 02:07:07 10° WNW 02:11:16 66° NNE 02:15:23 10° ESE
STARLINK-60 4.0 02:09:44 10° W 02:12:49 43° NNW 02:15:56 10° ENE
STARLINK-1210 3.8 02:09:55 10° WNW 02:13:55 49° SW 02:17:56 10° SE
STARLINK-1200 4.0 02:12:07 10° WNW 02:16:16 69° NNE 02:20:24 10° ESE
Cosmos 2219 4.1 02:11:41 10° NW 02:16:28 29° WSW 02:21:12 10° SSW
STARLINK-1320 2.9 02:14:52 14° SW 02:17:27 66° SSE 02:20:34 10° ENE
STARLINK-1322 2.9 02:15:11 14° SW 02:17:47 67° SSE 02:20:53 10° ENE
STARLINK-1324 2.9 02:15:32 14° SW 02:18:09 67° SSE 02:21:15 10° ENE
STARLINK-1294 2.9 02:15:47 13° SW 02:18:25 67° SSE 02:21:34 10° ENE
STARLINK-1261 2.9 02:16:09 13° SW 02:18:48 68° SSE 02:21:54 10° ENE
STARLINK-1219 3.9 02:14:54 10° WNW 02:18:53 45° SW 02:22:51 10° SE
STARLINK-1325 2.9 02:16:30 13° SW 02:19:10 68° SSE 02:22:16 10° ENE
STARLINK-1333 2.9 02:16:48 13° SW 02:19:28 68° SSE 02:22:34 10° ENE
STARLINK-1334 2.9 02:17:07 13° SW 02:19:48 69° SSE 02:22:55 10° ENE
STARLINK-1326 2.9 02:17:28 13° SW 02:20:09 69° SSE 02:23:15 10° ENE
Cosmos 1980 Rocket 3.0 02:14:55 10° S 02:20:14 47° ESE 02:25:37 10° NE
STARLINK-1323 2.9 02:17:47 13° SW 02:20:29 70° SSE 02:23:36 10° ENE
STARLINK-1338 3.2 02:17:39 13° SW 02:20:43 66° SSE 02:24:11 10° ENE
STARLINK-1349 2.9 02:18:06 13° SW 02:20:49 70° SSE 02:23:56 10° ENE
STARLINK-1336 2.9 02:18:28 13° SW 02:21:12 70° SSE 02:24:18 10° ENE
STARLINK-1192 3.9 02:17:06 10° WNW 02:21:16 72° NNE 02:25:24 10° ESE
STARLINK-1331 2.9 02:18:45 13° SW 02:21:30 71° SSE 02:24:36 10° ENE
STARLINK-1344 2.9 02:19:05 13° SW 02:21:50 71° SSE 02:24:57 10° ENE
STARLINK-1343 2.9 02:19:25 12° SW 02:22:11 72° SSE 02:25:17 10° ENE
STARLINK-1346 2.9 02:19:43 12° SW 02:22:31 72° SSE 02:25:41 10° ENE
CZ-4B R/B 4.3 02:20:22 10° ESE 02:22:32 18° ENE 02:24:43 10° NNE
STARLINK-1328 2.9 02:20:05 12° SW 02:22:52 72° SSE 02:25:59 10° ENE
Cosmos 1328 4.3 02:19:19 11° SSW 02:22:57 46° WNW 02:26:49 10° N
STARLINK-1354 2.9 02:20:22 12° SW 02:23:11 73° SSE 02:26:17 10° ENE
STARLINK-1347 2.9 02:20:44 12° SW 02:23:33 73° SSE 02:26:40 10° ENE
STARLINK-1211 4.0 02:19:53 10° WNW 02:23:50 42° SW 02:27:44 10° SE
STARLINK-1357 2.9 02:21:01 12° WSW 02:23:51 74° SSE 02:26:58 10° ENE
STARLINK-1335 2.9 02:21:22 12° WSW 02:24:12 74° SSE 02:27:20 10° ENE
STARLINK-1327 2.9 02:21:41 12° WSW 02:24:32 74° SSE 02:27:39 10° ENE
STARLINK-1371 3.2 02:21:31 12° SW 02:24:45 70° SSE 02:28:15 10° ENE
ERS-2 2.1 02:21:10 10° S 02:24:48 64° WSW 02:28:28 10° NNW
STARLINK-1340 2.9 02:22:01 12° WSW 02:24:53 75° SSE 02:28:01 10° ENE
STARLINK-1356 2.8 02:22:21 12° WSW 02:25:13 75° SSE 02:28:21 10° ENE
STARLINK-1345 2.8 02:22:41 12° WSW 02:25:34 76° SSE 02:28:42 10° ENE
STARLINK-1355 2.8 02:22:59 11° WSW 02:25:53 76° SSE 02:29:01 10° ENE
ERBS 4.0 02:22:57 10° NW 02:26:06 37° NNE 02:29:16 10° E
STARLINK-1321 2.8 02:23:18 11° WSW 02:26:13 76° SSE 02:29:20 10° ENE
STARLINK-1244 3.8 02:22:04 10° WNW 02:26:14 76° NNE 02:30:23 10° ESE
STARLINK-1358 2.8 02:23:39 11° WSW 02:26:35 77° SSE 02:29:43 10° ENE
STARLINK-1341 3.2 02:23:29 11° SW 02:26:48 72° SSE 02:30:17 10° ENE
STARLINK-1332 2.8 02:23:57 11° WSW 02:26:54 77° SSE 02:30:01 10° ENE
STARLINK-1348 2.8 02:24:18 11° WSW 02:27:16 78° SSE 02:30:23 10° ENE
IRS-1C 4.2 02:22:12 10° N 02:27:31 67° WNW 02:32:47 10° SSW
STARLINK-1330 2.8 02:24:36 11° WSW 02:27:35 78° SSE 02:30:42 10° ENE
STARLINK-1363 2.8 02:24:56 11° WSW 02:27:55 79° SSE 02:31:02 10° ENE
STARLINK-1337 2.8 02:25:15 11° WSW 02:28:15 79° SSE 02:31:22 10° ENE
STARLINK-1342 2.8 02:25:35 11° WSW 02:28:35 79° SSE 02:31:43 10° ENE
STARLINK-1245 4.1 02:24:55 10° WNW 02:28:48 39° SW 02:32:40 10° SSE
STARLINK-1374 3.2 02:25:26 11° WSW 02:28:50 74° SSE 02:32:21 10° ENE
STARLINK-1364 2.8 02:25:55 11° WSW 02:28:56 80° SSE 02:32:04 10° ENE
STARLINK-1376 2.8 02:26:15 11° WSW 02:29:17 80° SSE 02:32:24 10° ENE
STARLINK-1360 2.8 02:26:30 11° WSW 02:29:33 81° SSE 02:32:41 10° ENE
STARLINK-1361 2.8 02:26:56 10° WSW 02:29:59 81° SSE 02:33:07 10° ENE
STARLINK-1367 2.9 02:27:10 10° WSW 02:30:15 81° SSE 02:33:26 10° ENE
STARLINK-1366 2.8 02:27:33 10° WSW 02:30:38 82° SSE 02:33:46 10° ENE
STARLINK-1339 3.2 02:27:27 10° WSW 02:30:56 76° SSE 02:34:26 10° ENE
STARLINK-1138 3.8 02:27:03 10° WNW 02:31:13 79° NNE 02:35:22 10° ESE
SL-4 R/B 2.8 02:26:46 10° W 02:31:33 63° N 02:36:07 10° ENE
Cosmos 2297 Rocket 3.2 02:27:19 10° NW 02:31:59 27° WSW 02:36:37 10° SSW
STARLINK-1377 3.2 02:29:31 10° WSW 02:33:01 79° SSE 02:36:33 10° ENE
STARLINK-1233 4.1 02:29:55 10° WNW 02:33:44 37° SW 02:37:33 10° SSE
STARLINK-1203 3.8 02:29:52 10° WNW 02:34:05 82° NNE 02:38:18 10° ESE
STARLINK-1353 3.1 02:31:24 10° WSW 02:34:53 81° SSE 02:38:22 10° ENE
Cosmos 2082 4.0 02:30:32 10° NW 02:35:57 47° WSW 02:41:18 10° S
STARLINK-1143 3.7 02:32:02 10° WNW 02:36:12 83° NNE 02:40:21 10° ESE
STARLINK-1375 3.1 02:33:15 10° WSW 02:36:44 83° SSE 02:40:14 10° ENE
Cosmos 540 Rocket 3.5 02:33:12 10° SSW 02:38:21 89° ESE 02:43:32 10° NNE
STARLINK-1204 4.2 02:34:56 10° WNW 02:38:42 34° SW 02:42:27 10° SSE
ATLAS CENTAUR R/B 3.7 02:36:13 10° WNW 02:38:49 16° NNW 02:41:22 10° N
STARLINK-1350 3.1 02:35:39 10° WSW 02:39:08 85° SSE 02:42:38 10° ENE
FALCON 9 DEB 3.6 02:36:15 10° W 02:39:40 59° NNW 02:43:06 10° ENE
STARLINK-1241 3.7 02:37:01 10° WNW 02:41:11 87° NNE 02:45:20 10° ESE
Cosmos 1455 4.1 02:39:21 10° NW 02:41:26 14° W 02:43:30 10° WSW
STARLINK-29 3.9 02:38:22 10° W 02:41:27 44° NNW 02:44:32 10° ENE
STARLINK-1352 3.2 02:38:02 10° WSW 02:41:34 88° SSE 02:45:06 10° ENE
Landsat 5 3.7 02:37:11 10° SSE 02:41:42 82° WSW 02:46:15 10° NNW
CZ-2D R/B 3.5 02:37:50 10° NNE 02:41:57 83° WNW 02:46:08 10° SSW
Cosmos 2278 3.8 02:37:12 10° SSW 02:42:50 81° ESE 02:48:31 10° NNE
USA 234 4.1 02:37:06 10° ENE 02:43:15 42° SE 02:49:23 10° SSW
STARLINK-1238 4.3 02:39:56 10° WNW 02:43:37 32° SW 02:47:18 10° SSE
STARLINK-1368 3.2 02:40:13 10° WSW 02:43:44 90° NNW 02:47:16 10° ENE
Meteor 1-28 Rocket 3.7 02:41:08 10° S 02:44:44 41° W 02:48:20 10° NNW
Meteor 1-11 4.4 02:39:21 10° SSW 02:44:56 62° WNW 02:50:30 10° N
SL-16 R/B 4.2 02:42:13 10° WSW 02:45:31 15° W 02:48:50 10° NW
STARLINK-1239 3.6 02:41:59 10° WNW 02:46:09 89° SSW 02:50:18 10° ESE
Cosmos 2074 Rocket 4.2 02:42:06 10° SSW 02:48:19 63° WNW 02:54:36 10° N
